Simultaneous Nadir Overpasses (SNOs) Predictions

Prediction of SNOs between AQUA and NPP Satellite Orbit:

Table of predicted SNOs for the next 14.0 days since TLE Epoch: 7/25/2020
Index Date (AQUA) Time (AQUA) Lat,Lon (AQUA) SZA (AQUA ) Date (NPP) Time (NPP) Lat,Lon (NPP) SZA (NPP ) Distance(km) Time Diff (sec)
1 07/27/2020 14:05:33 75.11,-154.80 79.96 07/27/2020 14:04:49 75.10,-154.88 80.02 2.57 44
2 07/27/2020 14:54:35 -76.35, 16.50 101.49 07/27/2020 14:55:08 -76.34, 16.47 101.51 1.06 33
3 07/30/2020 06:21:53 75.52, -37.80 80.11 07/30/2020 06:21:36 75.51, -37.89 80.14 2.69 17
4 07/30/2020 07:10:57 -76.64, 133.38 101.23 07/30/2020 07:11:57 -76.64, 133.35 101.27 0.70 60
5 08/01/2020 21:49:09 -74.88, -91.28 98.53 08/01/2020 21:48:02 -74.88, -91.30 98.47 0.73 67
6 08/01/2020 22:38:14 75.92, 79.26 80.29 08/01/2020 22:38:24 75.91, 79.17 80.30 2.44 10
7 08/04/2020 14:05:29 -75.33, 25.81 98.37 08/04/2020 14:04:49 -75.33, 25.80 98.33 0.24 40
8 08/04/2020 14:54:35 76.31,-163.64 80.51 08/04/2020 14:55:12 76.30,-163.70 80.49 1.80 37
9 08/07/2020 06:21:48 -75.82, 143.10 98.23 08/07/2020 06:21:35 -75.83, 143.12 98.23 0.64 13
